South St. Paul, MN

2:25 AM CDT on April 28, 2017 (GMT -0500)
South Saint Paul Municipal-Fleming

Weather History for KSGS - June, 2013

Change the Weather History Date:

Monday, June 17, 2013

  Actual Average (KSTP) Record (KSTP)
Temperature  
Mean Temperature 72 °F -  
Max Temperature 82 °F 76 °F 91 °F (2007)
Min Temperature 63 °F 57 °F 46 °F (1999)
Cooling Degree Days 8    
Growing Degree Days 22 (Base 50)    
Moisture  
Dew Point 55 °F    
Average Humidity 54    
Maximum Humidity 76    
Minimum Humidity 33    
Precipitation  
Precipitation 0.01 in - - ()
Sea Level Pressure  
Sea Level Pressure 29.92 in    
Wind  
Wind Speed 4 mph (NW)    
Max Wind Speed 12 mph    
Max Gust Speed 20 mph    
Visibility 10 miles    
Events      
Averages and records for this station are not official NWS values.
T = Trace of Precipitation, MM = Missing Value Source: NWS Daily Summary

Daily Weather History Graph

Daily Weather History Graph

Search for Another Location

Airport or City:

Trip Planner

Search our weather history database for the weather conditions in past years. The results will help you decide how hot, cold, wet, or windy it might be!

Date:

Astronomy

Jun. 17, 2013 Rise Set
Actual Time 5:25 AM CDT 9:00 PM CDT
Civil Twilight 4:48 AM CDT 9:38 PM CDT
Nautical Twilight 3:58 AM CDT 10:27 PM CDT
Astronomical Twilight 2:53 AM CDT 11:32 PM CDT
Moon 2:27 PM CDT (6/17) 1:15 AM CDT (6/17)
Length of Visible Light 16h 50m
Length of Day
15h 35m
First Quarter, 60% of the Moon is Illuminated
Jun 17
First Quarter
Jun 23
Full
Jun 29
Last Quarter
Jul 8
New
Jul 15
First Quarter

Hourly Weather History & Observations

Time (CDT) Temp. Heat Index Dew Point Humidity Pressure Visibility Wind Dir Wind Speed Gust Speed Precip Events Conditions
12:14 AM 67.1 °F - 56.3 °F 68% 29.87 in 10.0 mi SW 3.5 mph - N/A   Clear
12:34 AM 66.4 °F - 55.9 °F 69% 29.87 in 10.0 mi Calm Calm - N/A   Clear
12:54 AM 65.8 °F - 56.3 °F 71% 29.87 in 10.0 mi Calm Calm - N/A   Clear
1:14 AM 66.6 °F - 55.0 °F 66% 29.88 in 10.0 mi WSW 3.5 mph - N/A   Clear
1:34 AM 66.7 °F - 54.7 °F 65% 29.87 in 10.0 mi West 4.6 mph - N/A   Clear
1:54 AM 66.2 °F - 54.7 °F 66% 29.87 in 10.0 mi WSW 3.5 mph - N/A   Clear
2:14 AM 66.2 °F - 54.9 °F 67% 29.87 in 10.0 mi West 4.6 mph - N/A   Clear
2:34 AM 67.5 °F - 54.7 °F 64% 29.87 in 10.0 mi Calm Calm - N/A   Scattered Clouds
2:54 AM 67.1 °F - 54.7 °F 64% 29.87 in 10.0 mi Calm Calm - N/A   Scattered Clouds
3:14 AM 67.3 °F - 54.9 °F 64% 29.88 in 10.0 mi Calm Calm - N/A   Mostly Cloudy
3:34 AM 66.7 °F - 55.2 °F 66% 29.88 in 10.0 mi Calm Calm - N/A   Mostly Cloudy
3:54 AM 66.6 °F - 55.0 °F 66% 29.88 in 10.0 mi Calm Calm - N/A   Mostly Cloudy
4:14 AM 66.4 °F - 55.6 °F 68% 29.88 in 10.0 mi WNW 3.5 mph - N/A   Mostly Cloudy
4:34 AM 65.8 °F - 55.4 °F 69% 29.88 in 10.0 mi Calm Calm - N/A   Scattered Clouds
4:54 AM 65.3 °F - 55.6 °F 71% 29.89 in 10.0 mi Calm Calm - N/A   Clear
5:14 AM 64.4 °F - 55.8 °F 73% 29.89 in 10.0 mi Calm Calm - N/A   Clear
5:34 AM 64.4 °F - 55.9 °F 74% 29.89 in 10.0 mi Calm Calm - N/A   Clear
5:54 AM 63.9 °F - 56.3 °F 76% 29.89 in 10.0 mi West 3.5 mph - N/A   Clear
6:14 AM 64.4 °F - 56.5 °F 75% 29.90 in 10.0 mi Calm Calm - N/A   Clear
6:34 AM 65.7 °F - 57.0 °F 74% 29.90 in 10.0 mi Calm Calm - N/A   Clear
6:54 AM 67.1 °F - 57.6 °F 71% 29.90 in 10.0 mi Calm Calm - N/A   Clear
7:14 AM 67.6 °F - 57.2 °F 69% 29.91 in 10.0 mi WSW 3.5 mph - N/A   Clear
7:34 AM 68.5 °F - 57.4 °F 67% 29.92 in 10.0 mi West 3.5 mph - N/A   Clear
7:54 AM 69.8 °F - 57.9 °F 66% 29.92 in 10.0 mi West 4.6 mph - N/A   Clear
8:14 AM 70.9 °F - 58.3 °F 64% 29.93 in 10.0 mi WSW 4.6 mph - N/A   Clear
8:34 AM 72.1 °F - 57.9 °F 61% 29.93 in 10.0 mi West 3.5 mph - N/A   Clear
8:54 AM 73.6 °F - 58.1 °F 58% 29.93 in 10.0 mi West 5.8 mph - N/A   Clear
9:14 AM 75.0 °F - 57.2 °F 54% 29.93 in 10.0 mi WNW 5.8 mph - N/A   Clear
9:34 AM 75.9 °F - 56.5 °F 51% 29.93 in 10.0 mi WNW 5.8 mph - N/A   Clear
9:54 AM 76.5 °F - 55.4 °F 48% 29.92 in 10.0 mi WNW 9.2 mph - N/A   Clear
10:14 AM 77.9 °F - 52.3 °F 41% 29.92 in 10.0 mi NW 11.5 mph - N/A   Clear
10:34 AM 78.8 °F - 51.6 °F 39% 29.92 in 10.0 mi WNW 10.4 mph - N/A   Clear
10:54 AM 79.2 °F - 52.3 °F 39% 29.92 in 10.0 mi NW 11.5 mph 18.4 mph N/A   Clear
11:14 AM 79.5 °F - 52.2 °F 38% 29.93 in 10.0 mi WNW 6.9 mph - N/A   Scattered Clouds
11:34 AM 79.5 °F - 52.5 °F 39% 29.94 in 10.0 mi NW 8.1 mph 16.1 mph N/A   Scattered Clouds
11:54 AM 79.0 °F - 52.5 °F 40% 29.94 in 10.0 mi WNW 8.1 mph - N/A   Mostly Cloudy
12:14 PM 80.8 °F - 51.4 °F 36% 29.94 in 10.0 mi WNW 10.4 mph 18.4 mph N/A   Scattered Clouds
12:34 PM 80.6 °F - 52.0 °F 37% 29.95 in 10.0 mi WNW 8.1 mph - N/A   Scattered Clouds
12:54 PM 79.7 °F - 52.0 °F 38% 29.94 in 10.0 mi West 6.9 mph - N/A   Mostly Cloudy
1:14 PM 79.0 °F - 52.7 °F 40% 29.94 in 10.0 mi West 8.1 mph - N/A   Mostly Cloudy
1:34 PM 80.6 °F 80.3 °F 53.4 °F 39% 29.94 in 10.0 mi West 9.2 mph - N/A   Scattered Clouds
1:54 PM 81.3 °F 80.7 °F 53.8 °F 38% 29.93 in 10.0 mi West 10.4 mph - N/A   Clear
2:14 PM 81.5 °F - 50.5 °F 34% 29.93 in 10.0 mi West 8.1 mph - N/A   Scattered Clouds
2:34 PM 81.0 °F - 51.6 °F 36% 29.92 in 10.0 mi NW 10.4 mph - N/A   Mostly Cloudy
2:54 PM 82.4 °F - 50.9 °F 33% 29.92 in 10.0 mi WNW 10.4 mph - N/A   Scattered Clouds
3:14 PM 80.6 °F - 50.4 °F 35% 29.92 in 10.0 mi WNW 9.2 mph - N/A   Scattered Clouds
3:34 PM 81.9 °F - 52.3 °F 36% 29.92 in 10.0 mi WNW 8.1 mph - N/A   Mostly Cloudy
3:54 PM 80.4 °F - 52.9 °F 38% 29.93 in 10.0 mi NE 8.1 mph 19.6 mph N/A   Mostly Cloudy
4:14 PM 79.9 °F - 54.5 °F 41% 29.92 in 10.0 mi ENE 10.4 mph - N/A   Scattered Clouds
4:34 PM 79.3 °F - 54.5 °F 42% 29.92 in 10.0 mi NE 8.1 mph - N/A   Scattered Clouds
4:54 PM 77.4 °F - 54.1 °F 44% 29.93 in 10.0 mi ENE 5.8 mph - N/A   Scattered Clouds
5:14 PM 79.2 °F - 55.0 °F 43% 29.92 in 10.0 mi NE 6.9 mph - N/A   Scattered Clouds
5:34 PM 79.2 °F - 55.4 °F 44% 29.92 in 10.0 mi NNE 10.4 mph - N/A   Clear
5:54 PM 79.0 °F - 54.1 °F 42% 29.92 in 10.0 mi NNE 10.4 mph - N/A   Clear
6:14 PM 78.1 °F - 55.8 °F 46% 29.92 in 10.0 mi NE 6.9 mph - N/A   Clear
6:34 PM 77.9 °F - 59.0 °F 52% 29.92 in 10.0 mi NNE 10.4 mph - N/A   Scattered Clouds
6:54 PM 77.4 °F - 57.7 °F 51% 29.92 in 10.0 mi NE 6.9 mph - N/A   Clear
7:14 PM 77.5 °F - 55.4 °F 46% 29.93 in 10.0 mi NE 6.9 mph - N/A   Scattered Clouds
7:33 PM 77.0 °F - 55.2 °F 47% 29.93 in 10.0 mi NNE 8.1 mph - N/A   Scattered Clouds
7:54 PM 76.5 °F - 56.7 °F 50% 29.93 in 10.0 mi NNE 6.9 mph - N/A   Clear
8:14 PM 76.1 °F - 54.7 °F 47% 29.94 in 10.0 mi NNE 9.2 mph - N/A   Clear
8:34 PM 75.4 °F - 54.5 °F 48% 29.94 in 10.0 mi NNE 5.8 mph - N/A   Clear
8:54 PM 74.8 °F - 55.4 °F 51% 29.94 in 10.0 mi NNE 4.6 mph - N/A   Clear
9:14 PM 73.9 °F - 55.9 °F 53% 29.95 in 10.0 mi NNE 5.8 mph - N/A   Clear
9:34 PM 73.6 °F - 56.3 °F 55% 29.96 in 10.0 mi NNE 9.2 mph - N/A   Clear
9:54 PM 72.5 °F - 55.9 °F 56% 29.97 in 10.0 mi NNE 8.1 mph - N/A   Clear
10:14 PM 71.8 °F - 56.3 °F 58% 29.98 in 10.0 mi NNE 8.1 mph - N/A   Clear
10:34 PM 71.1 °F - 56.3 °F 60% 29.99 in 10.0 mi NNE 8.1 mph - N/A   Mostly Cloudy
10:54 PM 70.2 °F - 56.3 °F 61% 30.00 in 10.0 mi NNE 8.1 mph 16.1 mph N/A   Mostly Cloudy
11:14 PM 69.6 °F - 56.5 °F 63% 30.01 in 10.0 mi North 4.6 mph - N/A   Mostly Cloudy
11:34 PM 68.5 °F - 55.8 °F 64% 30.01 in 10.0 mi NNE 9.2 mph - N/A   Overcast
11:54 PM 67.5 °F - 54.3 °F 63% 30.02 in 10.0 mi NNE 8.1 mph - N/A   Overcast